Year,Month,Day,Hour,Minute,Value (Times are PST for temperature in C)
2017,01,04,00,00,-0.40
2017,01,04,00,01,-0.50
2017,01,04,00,02,-0.50
2017,01,04,00,03,-0.50
2017,01,04,00,04,-0.50
2017,01,04,00,05,-0.60
2017,01,04,00,06,-0.60
2017,01,04,00,07,-0.60
2017,01,04,00,08,-0.50
2017,01,04,00,09,-0.50
2017,01,04,00,10,-0.50
2017,01,04,00,11,-0.50
2017,01,04,00,12,-0.50
2017,01,04,00,13,-0.50
2017,01,04,00,14,-0.40
2017,01,04,00,15,-0.40
2017,01,04,00,16,-0.40
2017,01,04,00,17,-0.40
2017,01,04,00,18,-0.40
2017,01,04,00,19,-0.40
2017,01,04,00,20,-0.40
2017,01,04,00,21,-0.40
2017,01,04,00,22,-0.40
2017,01,04,00,23,-0.30
2017,01,04,00,24,-0.40
2017,01,04,00,25,-0.40
2017,01,04,00,26,-0.40
2017,01,04,00,27,-0.40
2017,01,04,00,28,-0.40
2017,01,04,00,29,-0.40
2017,01,04,00,30,-0.40
2017,01,04,00,31,-0.50
2017,01,04,00,32,-0.50
2017,01,04,00,33,-0.40
2017,01,04,00,34,-0.40
2017,01,04,00,35,-0.40
2017,01,04,00,36,-0.40
2017,01,04,00,37,-0.40
2017,01,04,00,38,-0.40
2017,01,04,00,39,-0.40
2017,01,04,00,40,-0.40
2017,01,04,00,41,-0.40
2017,01,04,00,42,-0.40
2017,01,04,00,43,-0.40
2017,01,04,00,44,-0.40
2017,01,04,00,45,-0.40
2017,01,04,00,46,-0.40
2017,01,04,00,47,-0.40
2017,01,04,00,48,-0.40
2017,01,04,00,49,-0.40
2017,01,04,00,50,-0.40
2017,01,04,00,51,-0.40
2017,01,04,00,52,-0.50
2017,01,04,00,53,-0.50
2017,01,04,00,54,-0.50
2017,01,04,00,55,-0.50
2017,01,04,00,56,-0.50
2017,01,04,00,57,-0.50
2017,01,04,00,58,-0.50
2017,01,04,00,59,-0.50
2017,01,04,01,00,-0.60
2017,01,04,01,01,-0.70
2017,01,04,01,02,-0.70
2017,01,04,01,03,-0.70
2017,01,04,01,04,-0.70
2017,01,04,01,05,-0.70
2017,01,04,01,06,-0.70
2017,01,04,01,07,-0.70
2017,01,04,01,08,-0.70
2017,01,04,01,09,-0.70
2017,01,04,01,10,-0.80
2017,01,04,01,11,-0.80
2017,01,04,01,12,-0.80
2017,01,04,01,13,-0.80
2017,01,04,01,14,-0.80
2017,01,04,01,15,-0.80
2017,01,04,01,16,-0.80
2017,01,04,01,17,-0.80
2017,01,04,01,18,-0.80
2017,01,04,01,19,-0.80
2017,01,04,01,20,-0.80
2017,01,04,01,21,-0.80
2017,01,04,01,22,-0.80
2017,01,04,01,23,-0.80
2017,01,04,01,24,-0.80
2017,01,04,01,25,-0.80
2017,01,04,01,26,-0.80
2017,01,04,01,27,-0.80
2017,01,04,01,28,-0.80
2017,01,04,01,29,-0.60
2017,01,04,01,30,-0.60
2017,01,04,01,31,-0.70
2017,01,04,01,32,-0.60
2017,01,04,01,33,-0.60
2017,01,04,01,34,-0.70
2017,01,04,01,35,-0.70
2017,01,04,01,36,-0.70
2017,01,04,01,37,-0.70
2017,01,04,01,38,-0.70
2017,01,04,01,39,-0.70
2017,01,04,01,40,-0.70
2017,01,04,01,41,-0.70
2017,01,04,01,42,-0.70
2017,01,04,01,43,-0.70
2017,01,04,01,44,-0.70
2017,01,04,01,45,-0.70
2017,01,04,01,46,-0.70
2017,01,04,01,47,-0.70
2017,01,04,01,48,-0.70
2017,01,04,01,49,-0.70
2017,01,04,01,50,-0.80
2017,01,04,01,51,-0.80
2017,01,04,01,52,-0.80
2017,01,04,01,53,-0.80
2017,01,04,01,54,-0.90
2017,01,04,01,55,-0.90
2017,01,04,01,56,-1.00
2017,01,04,01,57,-1.00
2017,01,04,01,58,-1.00
2017,01,04,01,59,-1.00
2017,01,04,02,00,-0.90
2017,01,04,02,01,-0.90
2017,01,04,02,02,-0.90
2017,01,04,02,03,-0.90
2017,01,04,02,04,-0.80
2017,01,04,02,05,-0.80
2017,01,04,02,06,-0.80
2017,01,04,02,07,-0.80
2017,01,04,02,08,-0.80
2017,01,04,02,09,-0.80
2017,01,04,02,10,-0.70
2017,01,04,02,11,-0.70
2017,01,04,02,12,-0.70
2017,01,04,02,13,-0.70
2017,01,04,02,14,-0.70
2017,01,04,02,15,-0.70
2017,01,04,02,16,-0.70
2017,01,04,02,17,-0.80
2017,01,04,02,18,-0.80
2017,01,04,02,19,-0.80
2017,01,04,02,20,-0.70
2017,01,04,02,21,-0.70
2017,01,04,02,22,-0.70
2017,01,04,02,23,-0.70
2017,01,04,02,24,-0.70
2017,01,04,02,25,-0.80
2017,01,04,02,26,-0.80
2017,01,04,02,27,-0.80
2017,01,04,02,28,-0.80
2017,01,04,02,29,-0.80
2017,01,04,02,30,-0.80
2017,01,04,02,31,-0.70
2017,01,04,02,32,-0.70
2017,01,04,02,33,-0.70
2017,01,04,02,34,-0.70
2017,01,04,02,35,-0.70
2017,01,04,02,36,-0.70
2017,01,04,02,37,-0.60
2017,01,04,02,38,-0.60
2017,01,04,02,39,-0.60
2017,01,04,02,40,-0.60
2017,01,04,02,41,-0.60
2017,01,04,02,42,-0.60
2017,01,04,02,43,-0.60
2017,01,04,02,44,-0.60
2017,01,04,02,45,-0.60
2017,01,04,02,46,-0.60
2017,01,04,02,47,-0.60
2017,01,04,02,48,-0.60
2017,01,04,02,49,-0.60
2017,01,04,02,50,-0.60
2017,01,04,02,51,-0.60
2017,01,04,02,52,-0.60
2017,01,04,02,53,-0.70
2017,01,04,02,54,-0.70
2017,01,04,02,55,-0.70
2017,01,04,02,56,-0.70
2017,01,04,02,57,-0.70
2017,01,04,02,58,-0.70
2017,01,04,02,59,-0.70
2017,01,04,03,00,-0.70
2017,01,04,03,01,-0.70
2017,01,04,03,02,-0.70
2017,01,04,03,03,-0.60
2017,01,04,03,04,-0.60
2017,01,04,03,05,-0.60
2017,01,04,03,06,-0.60
2017,01,04,03,07,-0.60
2017,01,04,03,08,-0.60
2017,01,04,03,09,-0.70
2017,01,04,03,10,-0.70
2017,01,04,03,11,-0.70
2017,01,04,03,12,-0.60
2017,01,04,03,13,-0.70
2017,01,04,03,14,-0.70
2017,01,04,03,15,-0.70
2017,01,04,03,16,-0.70
2017,01,04,03,17,-0.70
2017,01,04,03,18,-0.70
2017,01,04,03,19,-0.70
2017,01,04,03,20,-0.70
2017,01,04,03,21,-0.70
2017,01,04,03,22,-0.70
2017,01,04,03,23,-0.70
2017,01,04,03,24,-0.70
2017,01,04,03,25,-0.70
2017,01,04,03,26,-0.80
2017,01,04,03,27,-0.80
2017,01,04,03,28,-0.80
2017,01,04,03,29,-0.70
2017,01,04,03,30,-0.80
2017,01,04,03,31,-0.80
2017,01,04,03,32,-0.80
2017,01,04,03,33,-0.80
2017,01,04,03,34,-0.80
2017,01,04,03,35,-0.70
2017,01,04,03,36,-0.70
2017,01,04,03,37,-0.70
2017,01,04,03,38,-0.70
2017,01,04,03,39,-0.70
2017,01,04,03,40,-0.70
2017,01,04,03,41,-0.70
2017,01,04,03,42,-0.70
2017,01,04,03,43,-0.70
2017,01,04,03,44,-0.80
2017,01,04,03,45,-0.80
2017,01,04,03,46,-0.80
2017,01,04,03,47,-0.80
2017,01,04,03,48,-0.80
2017,01,04,03,49,-0.80
2017,01,04,03,50,-0.70
2017,01,04,03,51,-0.70
2017,01,04,03,52,-0.70
2017,01,04,03,53,-0.70
2017,01,04,03,54,-0.80
2017,01,04,03,55,-0.80
2017,01,04,03,56,-0.80
2017,01,04,03,57,-0.80
2017,01,04,03,58,-0.80
2017,01,04,03,59,-0.80
2017,01,04,04,00,-0.80
2017,01,04,04,01,-0.80
2017,01,04,04,02,-0.80
2017,01,04,04,03,-0.80
2017,01,04,04,04,-0.80
2017,01,04,04,05,-0.80
2017,01,04,04,06,-0.80
2017,01,04,04,07,-0.70
2017,01,04,04,08,-0.70
2017,01,04,04,09,-0.60
2017,01,04,04,10,-0.60
2017,01,04,04,11,-0.60
2017,01,04,04,12,-0.70
2017,01,04,04,13,-0.70
2017,01,04,04,14,-0.70
2017,01,04,04,15,-0.70
2017,01,04,04,16,-0.70
2017,01,04,04,17,-0.70
2017,01,04,04,18,-0.70
2017,01,04,04,19,-0.70
2017,01,04,04,20,-0.70
2017,01,04,04,21,-0.70
2017,01,04,04,22,-0.70
2017,01,04,04,23,-0.70
2017,01,04,04,24,-0.70
2017,01,04,04,25,-0.70
2017,01,04,04,26,-0.80
2017,01,04,04,27,-0.80
2017,01,04,04,28,-0.80
2017,01,04,04,29,-0.80
2017,01,04,04,30,-0.80
2017,01,04,04,31,-0.80
2017,01,04,04,32,-0.80
2017,01,04,04,33,-0.80
2017,01,04,04,34,-0.70
2017,01,04,04,35,-0.70
2017,01,04,04,36,-0.70
2017,01,04,04,37,-0.70
2017,01,04,04,38,-0.70
2017,01,04,04,39,-0.70
2017,01,04,04,40,-0.70
2017,01,04,04,41,-0.70
2017,01,04,04,42,-0.70
2017,01,04,04,43,-0.70
2017,01,04,04,44,-0.70
2017,01,04,04,45,-0.70
2017,01,04,04,46,-0.70
2017,01,04,04,47,-0.70
2017,01,04,04,48,-0.70
2017,01,04,04,49,-0.70
2017,01,04,04,50,-0.70
2017,01,04,04,51,-0.70
2017,01,04,04,52,-0.70
2017,01,04,04,53,-0.70
2017,01,04,04,54,-0.70
2017,01,04,04,55,-0.70
2017,01,04,04,56,-0.70
2017,01,04,04,57,-0.70
2017,01,04,04,58,-0.70
2017,01,04,04,59,-0.70
2017,01,04,05,00,-0.70
2017,01,04,05,01,-0.70
2017,01,04,05,02,-0.70
2017,01,04,05,03,-0.70
2017,01,04,05,04,-0.70
2017,01,04,05,05,-0.70
2017,01,04,05,06,-0.70
2017,01,04,05,07,-0.60
2017,01,04,05,08,-0.60
2017,01,04,05,09,-0.60
2017,01,04,05,10,-0.60
2017,01,04,05,11,-0.60
2017,01,04,05,12,-0.60
2017,01,04,05,13,-0.60
2017,01,04,05,14,-0.70
2017,01,04,05,15,-0.70
2017,01,04,05,16,-0.70
2017,01,04,05,17,-0.60
2017,01,04,05,18,-0.60
2017,01,04,05,19,-0.60
2017,01,04,05,20,-0.60
2017,01,04,05,21,-0.60
2017,01,04,05,22,-0.60
2017,01,04,05,23,-0.60
2017,01,04,05,24,-0.60
2017,01,04,05,25,-0.60
2017,01,04,05,26,-0.60
2017,01,04,05,27,-0.60
2017,01,04,05,28,-0.60
2017,01,04,05,29,-0.50
2017,01,04,05,30,-0.50
2017,01,04,05,31,-0.50
2017,01,04,05,32,-0.50
2017,01,04,05,33,-0.50
2017,01,04,05,34,-0.50
2017,01,04,05,35,-0.50
2017,01,04,05,36,-0.50
2017,01,04,05,37,-0.50
2017,01,04,05,38,-0.50
2017,01,04,05,39,-0.60
2017,01,04,05,40,-0.70
2017,01,04,05,41,-0.70
2017,01,04,05,42,-0.80
2017,01,04,05,43,-0.80
2017,01,04,05,44,-0.80
2017,01,04,05,45,-0.80
2017,01,04,05,46,-0.80
2017,01,04,05,47,-0.80
2017,01,04,05,48,-0.80
2017,01,04,05,49,-0.80
2017,01,04,05,50,-0.80
2017,01,04,05,51,-0.80
2017,01,04,05,52,-0.80
2017,01,04,05,53,-0.80
2017,01,04,05,54,-0.80
2017,01,04,05,55,-0.80
2017,01,04,05,56,-0.80
2017,01,04,05,57,-0.80
2017,01,04,05,58,-0.90
2017,01,04,05,59,-0.90
2017,01,04,06,00,-1.00
2017,01,04,06,01,-1.10
2017,01,04,06,02,-1.20
2017,01,04,06,03,-1.40
2017,01,04,06,04,-1.60
2017,01,04,06,05,-1.80
2017,01,04,06,06,-1.90
2017,01,04,06,07,-2.10
2017,01,04,06,08,-2.20
2017,01,04,06,09,-2.30
2017,01,04,06,10,-2.40
2017,01,04,06,11,-2.40
2017,01,04,06,12,-2.40
2017,01,04,06,13,-2.30
2017,01,04,06,14,-2.20
2017,01,04,06,15,-2.10
2017,01,04,06,16,-2.10
2017,01,04,06,17,-2.20
2017,01,04,06,18,-2.50
2017,01,04,06,19,-2.80
2017,01,04,06,20,-3.10
2017,01,04,06,21,-3.40
2017,01,04,06,22,-3.70
2017,01,04,06,23,-3.90
2017,01,04,06,24,-4.10
2017,01,04,06,25,-4.20
2017,01,04,06,26,-4.40
2017,01,04,06,27,-4.60
2017,01,04,06,28,-4.70
2017,01,04,06,29,-4.90
2017,01,04,06,30,-5.00
2017,01,04,06,31,-5.20
2017,01,04,06,32,-5.30
2017,01,04,06,33,-5.50
2017,01,04,06,34,-5.60
2017,01,04,06,35,-5.70
2017,01,04,06,36,-5.70
2017,01,04,06,37,-5.80
2017,01,04,06,38,-5.80
2017,01,04,06,39,-5.80
2017,01,04,06,40,-5.80
2017,01,04,06,41,-5.80
2017,01,04,06,42,-6.10
2017,01,04,06,43,-6.10
2017,01,04,06,44,-6.20
2017,01,04,06,45,-6.20
2017,01,04,06,46,-6.20
2017,01,04,06,47,-6.20
2017,01,04,06,48,-6.20
2017,01,04,06,49,-6.30
2017,01,04,06,50,-6.30
2017,01,04,06,51,-6.30
2017,01,04,06,52,-6.30
2017,01,04,06,53,-6.30
2017,01,04,06,54,-6.40
2017,01,04,06,55,-6.40
2017,01,04,06,56,-6.50
2017,01,04,06,57,-6.50
2017,01,04,06,58,-6.60
2017,01,04,06,59,-6.60
2017,01,04,07,00,-6.60
2017,01,04,07,01,-6.70
2017,01,04,07,02,-6.70
2017,01,04,07,03,-6.70
2017,01,04,07,04,-6.80
2017,01,04,07,05,-6.80
2017,01,04,07,06,-6.80
2017,01,04,07,07,-6.80
2017,01,04,07,08,-6.80
2017,01,04,07,09,-6.90
2017,01,04,07,10,-6.90
2017,01,04,07,11,-6.90
2017,01,04,07,12,-6.90
2017,01,04,07,13,-7.00
2017,01,04,07,14,-7.00
2017,01,04,07,15,-7.00
2017,01,04,07,16,-7.00
2017,01,04,07,17,-7.10
2017,01,04,07,18,-7.10
2017,01,04,07,19,-7.10
2017,01,04,07,20,-7.10
2017,01,04,07,21,-7.10
2017,01,04,07,22,-7.20
2017,01,04,07,23,-7.20
2017,01,04,07,24,-7.20
2017,01,04,07,25,-7.20
2017,01,04,07,26,-7.20
2017,01,04,07,27,-7.20
2017,01,04,07,28,-7.20
2017,01,04,07,29,-7.30
2017,01,04,07,30,-7.30
2017,01,04,07,31,-7.30
2017,01,04,07,32,-7.30
2017,01,04,07,33,-7.30
2017,01,04,07,34,-7.30
2017,01,04,07,35,-7.30
2017,01,04,07,36,-7.30
2017,01,04,07,37,-7.30
2017,01,04,07,38,-7.30
2017,01,04,07,39,-7.30
2017,01,04,07,40,-7.30
2017,01,04,07,41,-7.30
2017,01,04,07,42,-7.30
2017,01,04,07,43,-7.30
2017,01,04,07,44,-7.30
2017,01,04,07,45,-7.30
2017,01,04,07,46,-7.30
2017,01,04,07,47,-7.30
2017,01,04,07,48,-7.30
2017,01,04,07,49,-7.30
2017,01,04,07,50,-7.30
2017,01,04,07,51,-7.30
2017,01,04,07,52,-7.30
2017,01,04,07,53,-7.30
2017,01,04,07,54,-7.30
2017,01,04,07,55,-7.40
2017,01,04,07,56,-7.40
2017,01,04,07,57,-7.40
2017,01,04,07,58,-7.40
2017,01,04,07,59,-7.40
2017,01,04,08,00,-7.40
2017,01,04,08,01,-7.40
2017,01,04,08,02,-7.40
2017,01,04,08,03,-7.40
2017,01,04,08,04,-7.40
2017,01,04,08,05,-7.40
2017,01,04,08,06,-7.40
2017,01,04,08,07,-7.50
2017,01,04,08,08,-7.50
2017,01,04,08,09,-7.50
2017,01,04,08,10,-7.50
2017,01,04,08,11,-7.60
2017,01,04,08,12,-7.60
2017,01,04,08,13,-7.60
2017,01,04,08,14,-7.60
2017,01,04,08,15,-7.60
2017,01,04,08,16,-7.60
2017,01,04,08,17,-7.60
2017,01,04,08,18,-7.60
2017,01,04,08,19,-7.60
2017,01,04,08,20,-7.60
2017,01,04,08,21,-7.60
2017,01,04,08,22,-7.60
2017,01,04,08,23,-7.60
2017,01,04,08,24,-7.70
2017,01,04,08,25,-7.70
2017,01,04,08,26,-7.70
2017,01,04,08,27,-7.70
2017,01,04,08,28,-7.70
2017,01,04,08,29,-7.70
2017,01,04,08,30,-7.70
2017,01,04,08,31,-7.70
2017,01,04,08,32,-7.70
2017,01,04,08,33,-7.70
2017,01,04,08,34,-7.70
2017,01,04,08,35,-7.70
2017,01,04,08,36,-7.70
2017,01,04,08,37,-7.70
2017,01,04,08,38,-7.70
2017,01,04,08,39,-7.70
2017,01,04,08,40,-7.70
2017,01,04,08,41,-7.70
2017,01,04,08,42,-7.70
2017,01,04,08,43,-7.70
2017,01,04,08,44,-7.70
2017,01,04,08,45,-7.70
2017,01,04,08,46,-7.70
2017,01,04,08,47,-7.70
2017,01,04,08,48,-7.70
2017,01,04,08,49,-7.70
2017,01,04,08,50,-7.70
2017,01,04,08,51,-7.70
2017,01,04,08,52,-7.60
2017,01,04,08,53,-7.60
2017,01,04,08,54,-7.60
2017,01,04,08,55,-7.60
2017,01,04,08,56,-7.60
2017,01,04,08,57,-7.60
2017,01,04,08,58,-7.60
2017,01,04,08,59,-7.50
2017,01,04,09,00,-7.50
2017,01,04,09,01,-7.50
2017,01,04,09,02,-7.50
2017,01,04,09,03,-7.50
2017,01,04,09,04,-7.50
2017,01,04,09,05,-7.50
2017,01,04,09,06,-7.50
2017,01,04,09,07,-7.50
2017,01,04,09,08,-7.50
2017,01,04,09,09,-7.50
2017,01,04,09,10,-7.50
2017,01,04,09,11,-7.50
2017,01,04,09,12,-7.50
2017,01,04,09,13,-7.50
2017,01,04,09,14,-7.40
2017,01,04,09,15,-7.40
2017,01,04,09,16,-7.40
2017,01,04,09,17,-7.40
2017,01,04,09,18,-7.40
2017,01,04,09,19,-7.40
2017,01,04,09,20,-7.40
2017,01,04,09,21,-7.40
2017,01,04,09,22,-7.40
2017,01,04,09,23,-7.40
2017,01,04,09,24,-7.40
2017,01,04,09,25,-7.40
2017,01,04,09,26,-7.30
2017,01,04,09,27,-7.30
2017,01,04,09,28,-7.30
2017,01,04,09,29,-7.30
2017,01,04,09,30,-7.20
2017,01,04,09,31,-7.20
2017,01,04,09,32,-7.20
2017,01,04,09,33,-7.10
2017,01,04,09,34,-7.10
2017,01,04,09,35,-7.00
2017,01,04,09,36,-7.00
2017,01,04,09,37,-6.90
2017,01,04,09,38,-6.90
2017,01,04,09,39,-6.80
2017,01,04,09,40,-6.80
2017,01,04,09,41,-6.70
2017,01,04,09,42,-6.70
2017,01,04,09,43,-6.60
2017,01,04,09,44,-6.60
2017,01,04,09,45,-6.50
2017,01,04,09,46,-6.50
2017,01,04,09,47,-6.40
2017,01,04,09,48,-6.30
2017,01,04,09,49,-6.30
2017,01,04,09,50,-6.20
2017,01,04,09,51,-6.20
2017,01,04,09,52,-6.10
2017,01,04,09,53,-6.00
2017,01,04,09,54,-6.00
2017,01,04,09,55,-5.90
2017,01,04,09,56,-5.80
2017,01,04,09,57,-5.80
2017,01,04,09,58,-5.70
2017,01,04,09,59,-5.70
2017,01,04,10,00,-5.60
2017,01,04,10,01,-5.50
2017,01,04,10,02,-5.50
2017,01,04,10,03,-5.40
2017,01,04,10,04,-5.30
2017,01,04,10,05,-5.20
2017,01,04,10,06,-5.20
2017,01,04,10,07,-5.10
2017,01,04,10,08,-5.00
2017,01,04,10,09,-5.00
2017,01,04,10,10,-4.90
2017,01,04,10,11,-4.80
2017,01,04,10,12,-4.70
2017,01,04,10,13,-4.60
2017,01,04,10,14,-4.50
2017,01,04,10,15,-4.40
2017,01,04,10,16,-4.20
2017,01,04,10,17,-4.10
2017,01,04,10,18,-4.00
2017,01,04,10,19,-3.90
2017,01,04,10,20,-3.80
2017,01,04,10,21,-3.80
2017,01,04,10,22,-3.70
2017,01,04,10,23,-3.70
2017,01,04,10,24,-3.60
2017,01,04,10,25,-3.60
2017,01,04,10,26,-3.60
2017,01,04,10,27,-3.60
2017,01,04,10,28,-3.60
2017,01,04,10,29,-3.50
2017,01,04,10,30,-3.50
2017,01,04,10,31,-3.50
2017,01,04,10,32,-3.40
2017,01,04,10,33,-3.40
2017,01,04,10,34,-3.30
2017,01,04,10,35,-3.20
2017,01,04,10,36,-3.20
2017,01,04,10,37,-3.10
2017,01,04,10,38,-3.00
2017,01,04,10,39,-3.00
2017,01,04,10,40,-2.90
2017,01,04,10,41,-2.90
2017,01,04,10,42,-2.80
2017,01,04,10,43,-2.80
2017,01,04,10,44,-2.70
2017,01,04,10,45,-2.60
2017,01,04,10,46,-2.50
2017,01,04,10,47,-2.40
2017,01,04,10,48,-2.40
2017,01,04,10,49,-2.30
2017,01,04,10,50,-2.30
2017,01,04,10,51,-2.30
2017,01,04,10,52,-2.30
2017,01,04,10,53,-2.20
2017,01,04,10,54,-2.20
2017,01,04,10,55,-2.20
2017,01,04,10,56,-2.20
2017,01,04,10,57,-2.10
2017,01,04,10,58,-2.10
2017,01,04,10,59,-2.10
2017,01,04,11,00,-2.00
2017,01,04,11,01,-2.00
2017,01,04,11,02,-1.90
2017,01,04,11,03,-1.90
2017,01,04,11,04,-1.90
2017,01,04,11,05,-1.90
2017,01,04,11,06,-1.90
2017,01,04,11,07,-1.90
2017,01,04,11,08,-1.90
2017,01,04,11,09,-1.90
2017,01,04,11,10,-1.90
2017,01,04,11,11,-1.80
2017,01,04,11,12,-1.80
2017,01,04,11,13,-1.80
2017,01,04,11,14,-1.80
2017,01,04,11,15,-1.80
2017,01,04,11,16,-1.80
2017,01,04,11,17,-1.80
2017,01,04,11,18,-1.70
2017,01,04,11,19,-1.70
2017,01,04,11,20,-1.60
2017,01,04,11,21,-1.60
2017,01,04,11,22,-1.60
2017,01,04,11,23,-1.50
2017,01,04,11,24,-1.50
2017,01,04,11,25,-1.50
2017,01,04,11,26,-1.40
2017,01,04,11,27,-1.40
2017,01,04,11,28,-1.40
2017,01,04,11,29,-1.30
2017,01,04,11,30,-1.30
2017,01,04,11,31,-1.20
2017,01,04,11,32,-1.20
2017,01,04,11,33,-1.20
2017,01,04,11,34,-1.10
2017,01,04,11,35,-1.10
2017,01,04,11,36,-1.10
2017,01,04,11,37,-1.10
2017,01,04,11,38,-1.10
2017,01,04,11,39,-1.10
2017,01,04,11,40,-1.10
2017,01,04,11,41,-1.10
2017,01,04,11,42,-1.00
2017,01,04,11,43,-1.00
2017,01,04,11,44,-0.90
2017,01,04,11,45,-0.90
2017,01,04,11,46,-0.80
2017,01,04,11,47,-0.80
2017,01,04,11,48,-0.80
2017,01,04,11,49,-0.70
2017,01,04,11,50,-0.70
2017,01,04,11,51,-0.70
2017,01,04,11,52,-0.70
2017,01,04,11,53,-0.60
2017,01,04,11,54,-0.60
2017,01,04,11,55,-0.50
2017,01,04,11,56,-0.50
2017,01,04,11,57,-0.50
2017,01,04,11,58,-0.40
2017,01,04,11,59,-0.40
2017,01,04,12,00,-0.40
2017,01,04,12,01,-0.40
2017,01,04,12,02,-0.30
2017,01,04,12,03,-0.30
2017,01,04,12,04,-0.30
2017,01,04,12,05,-0.20
2017,01,04,12,06,-0.10
2017,01,04,12,07,-0.10
2017,01,04,12,08,0.00
2017,01,04,12,09,0.00
2017,01,04,12,10,0.00
2017,01,04,12,11,0.00
2017,01,04,12,12,0.00
2017,01,04,12,13,0.10
2017,01,04,12,14,0.10
2017,01,04,12,15,0.10
2017,01,04,12,16,0.10
2017,01,04,12,17,0.10
2017,01,04,12,18,0.10
2017,01,04,12,19,0.10
2017,01,04,12,20,0.10
2017,01,04,12,21,0.10
2017,01,04,12,22,0.10
2017,01,04,12,23,0.20
2017,01,04,12,24,0.20
2017,01,04,12,25,0.20
2017,01,04,12,26,0.30
2017,01,04,12,27,0.30
2017,01,04,12,28,0.40
2017,01,04,12,29,0.40
2017,01,04,12,30,0.40
2017,01,04,12,31,0.50
2017,01,04,12,32,0.50
2017,01,04,12,33,0.60
2017,01,04,12,34,0.60
2017,01,04,12,35,0.70
2017,01,04,12,36,0.70
2017,01,04,12,37,0.70
2017,01,04,12,38,0.80
2017,01,04,12,39,0.80
2017,01,04,12,40,0.90
2017,01,04,12,41,1.00
2017,01,04,12,42,1.00
2017,01,04,12,43,1.00
2017,01,04,12,44,1.00
2017,01,04,12,45,1.00
2017,01,04,12,46,1.00
2017,01,04,12,47,1.00
2017,01,04,12,48,1.00
2017,01,04,12,49,1.10
2017,01,04,12,50,1.10
2017,01,04,12,51,1.10
2017,01,04,12,52,1.10
2017,01,04,12,53,1.10
2017,01,04,12,54,1.10
2017,01,04,12,55,1.10
2017,01,04,12,56,1.10
2017,01,04,12,57,1.10
2017,01,04,12,58,1.10
2017,01,04,12,59,1.20
2017,01,04,13,00,1.20
2017,01,04,13,01,1.20
2017,01,04,13,02,1.30
2017,01,04,13,03,1.30
2017,01,04,13,04,1.40
2017,01,04,13,05,1.40
2017,01,04,13,06,1.50
2017,01,04,13,07,1.50
2017,01,04,13,08,1.50
2017,01,04,13,09,1.60
2017,01,04,13,10,1.60
2017,01,04,13,11,1.70
2017,01,04,13,12,1.70
2017,01,04,13,13,1.70
2017,01,04,13,14,1.70
2017,01,04,13,15,1.70
2017,01,04,13,16,1.80
2017,01,04,13,17,1.80
2017,01,04,13,18,1.80
2017,01,04,13,19,1.80
2017,01,04,13,20,1.90
2017,01,04,13,21,1.90
2017,01,04,13,22,2.00
2017,01,04,13,23,2.00
2017,01,04,13,24,2.00
2017,01,04,13,25,2.00
2017,01,04,13,26,2.00
2017,01,04,13,27,2.00
2017,01,04,13,28,2.00
2017,01,04,13,29,2.00
2017,01,04,13,30,2.00
2017,01,04,13,31,2.10
2017,01,04,13,32,2.10
2017,01,04,13,33,2.10
2017,01,04,13,34,2.10
2017,01,04,13,35,2.20
2017,01,04,13,36,2.20
2017,01,04,13,37,2.30
2017,01,04,13,38,2.30
2017,01,04,13,39,2.20
2017,01,04,13,40,2.20
2017,01,04,13,41,2.20
2017,01,04,13,42,2.20
2017,01,04,13,43,2.20
2017,01,04,13,44,2.20
2017,01,04,13,45,2.20
2017,01,04,13,46,2.20
2017,01,04,13,47,2.20
2017,01,04,13,48,2.20
2017,01,04,13,49,2.20
2017,01,04,13,50,2.20
2017,01,04,13,51,2.20
2017,01,04,13,52,2.30
2017,01,04,13,53,2.30
2017,01,04,13,54,2.30
2017,01,04,13,55,2.40
2017,01,04,13,56,2.40
2017,01,04,13,57,2.50
2017,01,04,13,58,2.50
2017,01,04,13,59,2.40
2017,01,04,14,00,2.40
2017,01,04,14,01,2.50
2017,01,04,14,02,2.50
2017,01,04,14,03,2.50
2017,01,04,14,04,2.60
2017,01,04,14,05,2.60
2017,01,04,14,06,2.60
2017,01,04,14,07,2.60
2017,01,04,14,08,2.60
2017,01,04,14,09,2.50
2017,01,04,14,10,2.50
2017,01,04,14,11,2.60
2017,01,04,14,12,2.60
2017,01,04,14,13,2.60
2017,01,04,14,14,2.60
2017,01,04,14,15,2.60
2017,01,04,14,16,2.60
2017,01,04,14,17,2.70
2017,01,04,14,18,2.70
2017,01,04,14,19,2.70
2017,01,04,14,20,2.80
2017,01,04,14,21,2.80
2017,01,04,14,22,2.80
2017,01,04,14,23,2.80
2017,01,04,14,24,2.80
2017,01,04,14,25,2.80
2017,01,04,14,26,2.80
2017,01,04,14,27,2.80
2017,01,04,14,28,2.80
2017,01,04,14,29,2.90
2017,01,04,14,30,2.80
2017,01,04,14,31,2.90
2017,01,04,14,32,2.90
2017,01,04,14,33,3.00
2017,01,04,14,34,3.00
2017,01,04,14,35,3.10
2017,01,04,14,36,3.10
2017,01,04,14,37,3.20
2017,01,04,14,38,3.20
2017,01,04,14,39,3.20
2017,01,04,14,40,3.20
2017,01,04,14,41,3.20
2017,01,04,14,42,3.20
2017,01,04,14,43,3.20
2017,01,04,14,44,3.20
2017,01,04,14,45,3.10
2017,01,04,14,46,3.10
2017,01,04,14,47,3.10
2017,01,04,14,48,3.10
2017,01,04,14,49,3.10
2017,01,04,14,50,3.10
2017,01,04,14,51,3.10
2017,01,04,14,52,3.10
2017,01,04,14,53,3.10
2017,01,04,14,54,3.10
2017,01,04,14,55,3.00
2017,01,04,14,56,3.00
2017,01,04,14,57,3.00
2017,01,04,14,58,3.00
2017,01,04,14,59,3.00
2017,01,04,15,00,3.00
2017,01,04,15,01,3.00
2017,01,04,15,02,3.00
2017,01,04,15,03,3.00
2017,01,04,15,04,3.00
2017,01,04,15,05,3.00
2017,01,04,15,06,3.00
2017,01,04,15,07,3.00
2017,01,04,15,08,3.00
2017,01,04,15,09,3.00
2017,01,04,15,10,3.00
2017,01,04,15,11,3.10
2017,01,04,15,12,3.10
2017,01,04,15,13,3.10
2017,01,04,15,14,3.20
2017,01,04,15,15,3.20
2017,01,04,15,16,3.20
2017,01,04,15,17,3.20
2017,01,04,15,18,3.20
2017,01,04,15,19,3.20
2017,01,04,15,20,3.20
2017,01,04,15,21,3.20
2017,01,04,15,22,3.20
2017,01,04,15,23,3.20
2017,01,04,15,24,3.30
2017,01,04,15,25,3.30
2017,01,04,15,26,3.30
2017,01,04,15,27,3.30
2017,01,04,15,28,3.30
2017,01,04,15,29,3.30
2017,01,04,15,30,3.30
2017,01,04,15,31,3.30
2017,01,04,15,32,3.30
2017,01,04,15,33,3.30
2017,01,04,15,34,3.30
2017,01,04,15,35,3.30
2017,01,04,15,36,3.30
2017,01,04,15,37,3.30
2017,01,04,15,38,3.30
2017,01,04,15,39,3.30
2017,01,04,15,40,3.30
2017,01,04,15,41,3.30
2017,01,04,15,42,3.30
2017,01,04,15,43,3.30
2017,01,04,15,44,3.40
2017,01,04,15,45,3.40
2017,01,04,15,46,3.40
2017,01,04,15,47,3.30
2017,01,04,15,48,3.30
2017,01,04,15,49,3.30
2017,01,04,15,50,3.30
2017,01,04,15,51,3.30
2017,01,04,15,52,3.30
2017,01,04,15,53,3.20
2017,01,04,15,54,3.20
2017,01,04,15,55,3.10
2017,01,04,15,56,3.00
2017,01,04,15,57,3.00
2017,01,04,15,58,2.90
2017,01,04,15,59,2.80
2017,01,04,16,00,2.80
2017,01,04,16,01,2.70
2017,01,04,16,02,2.60
2017,01,04,16,03,2.50
2017,01,04,16,04,2.40
2017,01,04,16,05,2.30
2017,01,04,16,06,2.20
2017,01,04,16,07,2.20
2017,01,04,16,08,2.10
2017,01,04,16,09,2.10
2017,01,04,16,10,2.00
2017,01,04,16,11,2.00
2017,01,04,16,12,1.90
2017,01,04,16,13,1.90
2017,01,04,16,14,1.80
2017,01,04,16,15,1.80
2017,01,04,16,16,1.70
2017,01,04,16,17,1.70
2017,01,04,16,18,1.70
2017,01,04,16,19,1.60
2017,01,04,16,20,1.60
2017,01,04,16,21,1.60
2017,01,04,16,22,1.60
2017,01,04,16,23,1.50
2017,01,04,16,24,1.50
2017,01,04,16,25,1.40
2017,01,04,16,26,1.40
2017,01,04,16,27,1.40
2017,01,04,16,28,1.40
2017,01,04,16,29,1.30
2017,01,04,16,30,1.30
2017,01,04,16,31,1.30
2017,01,04,16,32,1.30
2017,01,04,16,33,1.30
2017,01,04,16,34,1.20
2017,01,04,16,35,1.20
2017,01,04,16,36,1.20
2017,01,04,16,37,1.10
2017,01,04,16,38,1.10
2017,01,04,16,39,1.10
2017,01,04,16,40,1.00
2017,01,04,16,41,1.00
2017,01,04,16,42,0.90
2017,01,04,16,43,0.90
2017,01,04,16,44,0.80
2017,01,04,16,45,0.80
2017,01,04,16,46,0.70
2017,01,04,16,47,0.60
2017,01,04,16,48,0.60
2017,01,04,16,49,0.50
2017,01,04,16,50,0.40
2017,01,04,16,51,0.40
2017,01,04,16,52,0.30
2017,01,04,16,53,0.30
2017,01,04,16,54,0.20
2017,01,04,16,55,0.20
2017,01,04,16,56,0.10
2017,01,04,16,57,0.00
2017,01,04,16,58,0.00
2017,01,04,16,59,-0.10
2017,01,04,17,00,-0.20
2017,01,04,17,01,-0.20
2017,01,04,17,02,-0.30
2017,01,04,17,03,-0.30
2017,01,04,17,04,-0.40
2017,01,04,17,05,-0.50
2017,01,04,17,06,-0.50
2017,01,04,17,07,-0.60
2017,01,04,17,08,-0.70
2017,01,04,17,09,-0.70
2017,01,04,17,10,-0.80
2017,01,04,17,11,-0.80
2017,01,04,17,12,-0.80
2017,01,04,17,13,-0.90
2017,01,04,17,14,-0.90
2017,01,04,17,15,-1.00
2017,01,04,17,16,-1.00
2017,01,04,17,17,-1.10
2017,01,04,17,18,-1.10
2017,01,04,17,19,-1.10
2017,01,04,17,20,-1.20
2017,01,04,17,21,-1.20
2017,01,04,17,22,-1.20
2017,01,04,17,23,-1.30
2017,01,04,17,24,-1.30
2017,01,04,17,25,-1.30
2017,01,04,17,26,-1.40
2017,01,04,17,27,-1.40
2017,01,04,17,28,-1.50
2017,01,04,17,29,-1.50
2017,01,04,17,30,-1.50
2017,01,04,17,31,-1.60
2017,01,04,17,32,-1.60